When you browse on this site, cookies collect data to enhance your experience and personalize the content and advertising you see.
Visit our Privacy Policy to learn more. By continuing to use the site, you agree to this use of cookies and data.
  • En España
  • Lista de países
  • Para 7 días
  • Temperatura del agua
  • El tiempo en el mapa
  • Informadores
  • user-avatar
    Iniciar sesión

    Tiempo cada hora Neuquén

    Hoy, 17 Octubre, Jueves

    Tiempo Temperatura Precipitaciones Viento Presión Humedad
    00:00 +12°C° 0 mm 2 mps 736 mmHg 82%
    01:00 +11°C° 0 mm 1 mps 736 mmHg 85%
    02:00 +11°C° 0 mm 1 mps 736 mmHg 85%
    03:00 +10°C° 0 mm 2 mps 736 mmHg 85%
    04:00 +10°C° 0 mm 2 mps 735 mmHg 85%
    05:00 +12°C° 0 mm 2 mps 736 mmHg 79%
    06:00 +13°C° 0 mm 2 mps 736 mmHg 73%
    07:00 +14°C° 0 mm 1 mps 737 mmHg 67%
    08:00 +16°C° 0 mm 2 mps 737 mmHg 56%
    09:00 +18°C° 0 mm 3 mps 737 mmHg 45%
    10:00 +19°C° 0 mm 4 mps 737 mmHg 34%
    11:00 +20°C° 0 mm 5 mps 736 mmHg 29%
    12:00 +21°C° 0 mm 6 mps 736 mmHg 25%
    13:00 +22°C° 0 mm 7 mps 736 mmHg 20%
    14:00 +22°C° 0 mm 7 mps 735 mmHg 19%
    15:00 +22°C° 0 mm 7 mps 735 mmHg 18%
    16:00 +22°C° 0 mm 7 mps 735 mmHg 17%
    17:00 +20°C° 0 mm 6 mps 735 mmHg 18%
    18:00 +19°C° 0 mm 5 mps 735 mmHg 19%
    19:00 +18°C° 0 mm 3 mps 735 mmHg 21%
    20:00 +17°C° 0 mm 4 mps 736 mmHg 21%
    21:00 +17°C° 0 mm 4 mps 736 mmHg 22%
    22:00 +15°C° 0 mm 4 mps 736 mmHg 23%
    23:00 +14°C° 0 mm 4 mps 736 mmHg 27%

    Mañana, 18 Octubre, Viernes

    Tiempo Temperatura Precipitaciones Viento Presión Humedad
    00:00 +14°C° 0 mm 4 mps 736 mmHg 31%
    01:00 +13°C° 0 mm 4 mps 736 mmHg 35%
    02:00 +12°C° 0 mm 4 mps 736 mmHg 38%
    03:00 +12°C° 0 mm 4 mps 736 mmHg 41%
    04:00 +11°C° 0 mm 4 mps 737 mmHg 43%
    05:00 +13°C° 0 mm 4 mps 737 mmHg 40%
    06:00 +14°C° 0 mm 3 mps 737 mmHg 37%
    07:00 +17°C° 0 mm 3 mps 738 mmHg 34%
    08:00 +19°C° 0 mm 3 mps 738 mmHg 30%
    09:00 +20°C° 0 mm 2 mps 738 mmHg 26%
    10:00 +23°C° 0 mm 1 mps 739 mmHg 22%
    11:00 +24°C° 0 mm 1 mps 738 mmHg 20%
    12:00 +24°C° 0 mm 1 mps 738 mmHg 19%
    13:00 +25°C° 0 mm 1 mps 738 mmHg 17%
    14:00 +25°C° 0 mm 1 mps 737 mmHg 17%
    15:00 +26°C° 0 mm 1 mps 737 mmHg 16%
    16:00 +26°C° 0 mm 1 mps 737 mmHg 15%
    17:00 +24°C° 0 mm 1 mps 737 mmHg 17%
    18:00 +23°C° 0 mm 2 mps 737 mmHg 19%
    19:00 +21°C° 0 mm 2 mps 737 mmHg 21%
    20:00 +20°C° 0 mm 3 mps 737 mmHg 22%
    21:00 +20°C° 0 mm 3 mps 737 mmHg 22%
    22:00 +20°C° 0 mm 3 mps 738 mmHg 22%
    23:00 +19°C° 0 mm 4 mps 737 mmHg 23%

    Pasado mañana, 19 Octubre, Sábado

    Tiempo Temperatura Precipitaciones Viento Presión Humedad
    00:00 +18°C° 0 mm 4 mps 737 mmHg 24%
    01:00 +18°C° 0 mm 4 mps 737 mmHg 25%
    02:00 +17°C° 0 mm 4 mps 737 mmHg 26%
    03:00 +16°C° 0 mm 5 mps 736 mmHg 27%
    04:00 +16°C° 0 mm 5 mps 736 mmHg 27%
    05:00 +17°C° 0 mm 6 mps 737 mmHg 27%
    06:00 +20°C° 0 mm 7 mps 737 mmHg 27%
    07:00 +21°C° 0 mm 8 mps 737 mmHg 26%
    08:00 +23°C° 0 mm 9 mps 736 mmHg 25%
    09:00 +26°C° 0 mm 10 mps 736 mmHg 23%
    10:00 +28°C° 0 mm 11 mps 736 mmHg 22%
    11:00 +29°C° 0 mm 11 mps 735 mmHg 22%
    12:00 +31°C° 0 mm 11 mps 734 mmHg 22%
    13:00 +31°C° 0 mm 11 mps 733 mmHg 23%
    14:00 +31°C° 0 mm 11 mps 733 mmHg 23%
    15:00 +29°C° 0 mm 11 mps 732 mmHg 24%
    16:00 +29°C° 0 mm 11 mps 731 mmHg 24%
    17:00 +27°C° 0.3 mm 9 mps 731 mmHg 30%
    18:00 +26°C° 0.3 mm 8 mps 732 mmHg 35%
    19:00 +23°C° 0.3 mm 6 mps 732 mmHg 40%
    20:00 +23°C° 0.3 mm 6 mps 732 mmHg 41%
    21:00 +23°C° 0.3 mm 5 mps 732 mmHg 42%
    22:00 +22°C° 0.3 mm 4 mps 732 mmHg 42%
    23:00 +22°C° 0.1 mm 5 mps 732 mmHg 46%

    20 Octubre, Domingo

    Tiempo Temperatura Precipitaciones Viento Presión Humedad
    00:00 +21°C° 0.1 mm 6 mps 732 mmHg 49%
    01:00 +20°C° 0.1 mm 7 mps 732 mmHg 52%
    02:00 +20°C° 0.1 mm 6 mps 732 mmHg 53%
    03:00 +19°C° 0.1 mm 6 mps 733 mmHg 53%
    04:00 +19°C° 0.1 mm 6 mps 733 mmHg 54%
    05:00 +19°C° 0 mm 6 mps 733 mmHg 50%
    06:00 +20°C° 0 mm 6 mps 734 mmHg 47%
    07:00 +20°C° 0 mm 6 mps 734 mmHg 43%
    08:00 +21°C° 0 mm 6 mps 734 mmHg 37%
    09:00 +23°C° 0 mm 6 mps 734 mmHg 31%
    10:00 +24°C° 0 mm 6 mps 734 mmHg 24%
    11:00 +26°C° 0 mm 7 mps 734 mmHg 21%
    12:00 +26°C° 0 mm 7 mps 733 mmHg 18%
    13:00 +27°C° 0 mm 7 mps 733 mmHg 16%
    14:00 +27°C° 0 mm 8 mps 733 mmHg 16%
    15:00 +27°C° 0 mm 8 mps 732 mmHg 16%
    16:00 +27°C° 0 mm 8 mps 732 mmHg 16%
    17:00 +24°C° 0 mm 8 mps 733 mmHg 17%
    18:00 +22°C° 0 mm 9 mps 733 mmHg 18%
    19:00 +21°C° 0 mm 9 mps 734 mmHg 19%
    20:00 +18°C° 0 mm 9 mps 734 mmHg 23%
    21:00 +17°C° 0 mm 9 mps 734 mmHg 27%
    22:00 +16°C° 0 mm 9 mps 735 mmHg 31%
    23:00 +15°C° 0 mm 9 mps 734 mmHg 33%

    21 Octubre, Lunes

    Tiempo Temperatura Precipitaciones Viento Presión Humedad
    00:00 +15°C° 0 mm 8 mps 734 mmHg 35%
    01:00 +13°C° 0 mm 8 mps 734 mmHg 36%
    02:00 +13°C° 0 mm 8 mps 734 mmHg 40%
    03:00 +12°C° 0 mm 7 mps 735 mmHg 44%
    04:00 +11°C° 0 mm 7 mps 735 mmHg 48%
    05:00 +12°C° 0 mm 8 mps 736 mmHg 45%
    06:00 +13°C° 0 mm 8 mps 737 mmHg 42%
    07:00 +15°C° 0 mm 9 mps 738 mmHg 40%
    08:00 +16°C° 0 mm 9 mps 738 mmHg 33%
    09:00 +17°C° 0 mm 8 mps 738 mmHg 26%
    10:00 +18°C° 0 mm 8 mps 738 mmHg 20%
    11:00 +20°C° 0 mm 7 mps 738 mmHg 17%
    12:00 +21°C° 0 mm 6 mps 738 mmHg 15%
    13:00 +21°C° 0 mm 5 mps 737 mmHg 13%
    14:00 +21°C° 0 mm 5 mps 737 mmHg 14%
    15:00 +21°C° 0 mm 4 mps 736 mmHg 15%
    16:00 +22°C° 0 mm 3 mps 736 mmHg 16%
    17:00 +20°C° 0 mm 3 mps 736 mmHg 17%
    18:00 +19°C° 0 mm 3 mps 736 mmHg 17%
    19:00 +18°C° 0 mm 2 mps 736 mmHg 18%
    20:00 +17°C° 0 mm 2 mps 736 mmHg 18%
    21:00 +16°C° 0 mm 2 mps 737 mmHg 18%
    22:00 +15°C° 0 mm 1 mps 737 mmHg 18%
    23:00 +15°C° 0 mm 1 mps 737 mmHg 18%

    22 Octubre, Martes

    Tiempo Temperatura Precipitaciones Viento Presión Humedad
    00:00 +14°C° 0 mm 1 mps 736 mmHg 18%
    01:00 +13°C° 0 mm 1 mps 736 mmHg 18%
    02:00 +13°C° 0 mm 2 mps 736 mmHg 19%
    03:00 +12°C° 0 mm 2 mps 736 mmHg 20%
    04:00 +12°C° 0 mm 2 mps 736 mmHg 21%
    05:00 +14°C° 0 mm 2 mps 736 mmHg 19%
    06:00 +16°C° 0 mm 3 mps 736 mmHg 18%
    07:00 +18°C° 0 mm 4 mps 736 mmHg 16%
    08:00 +20°C° 0 mm 5 mps 736 mmHg 16%
    09:00 +21°C° 0 mm 5 mps 735 mmHg 15%
    10:00 +23°C° 0 mm 6 mps 735 mmHg 14%
    11:00 +24°C° 0 mm 6 mps 734 mmHg 15%
    12:00 +26°C° 0 mm 6 mps 734 mmHg 16%
    13:00 +27°C° 0 mm 6 mps 733 mmHg 17%
    14:00 +27°C° 0 mm 5 mps 732 mmHg 17%
    15:00 +28°C° 0 mm 4 mps 732 mmHg 17%
    16:00 +28°C° 0 mm 3 mps 731 mmHg 18%
    17:00 +26°C° 0 mm 3 mps 731 mmHg 19%
    18:00 +25°C° 0 mm 3 mps 731 mmHg 21%
    19:00 +22°C° 0 mm 3 mps 731 mmHg 22%
    20:00 +21°C° 0 mm 3 mps 731 mmHg 25%
    21:00 +21°C° 0 mm 3 mps 731 mmHg 27%
    22:00 +20°C° 0 mm 3 mps 732 mmHg 30%
    23:00 +19°C° 0 mm 3 mps 731 mmHg 35%
    Mostrar más